Hourly Weather Montmorency

Today, 4 July, Saturday

Time Temperature Precipitation Wind Pressure Humidity
00:00 +16°C° 0 mm 3 mps 752 mmHg 78%
01:00 +16°C° 0 mm 3 mps 752 mmHg 80%
02:00 +14°C° 0 mm 3 mps 751 mmHg 82%
03:00 +14°C° 0 mm 4 mps 751 mmHg 84%
04:00 +14°C° 0 mm 4 mps 751 mmHg 81%
05:00 +14°C° 0 mm 4 mps 751 mmHg 78%
06:00 +14°C° 0 mm 4 mps 751 mmHg 75%
07:00 +15°C° 0 mm 5 mps 751 mmHg 76%
08:00 +15°C° 0 mm 5 mps 751 mmHg 76%
09:00 +16°C° 0 mm 5 mps 751 mmHg 76%
10:00 +17°C° 0 mm 5 mps 751 mmHg 73%
11:00 +20°C° 0 mm 5 mps 751 mmHg 70%
12:00 +21°C° 0 mm 6 mps 751 mmHg 67%
13:00 +21°C° 0 mm 6 mps 751 mmHg 68%
14:00 +21°C° 0 mm 5 mps 750 mmHg 70%
15:00 +21°C° 0 mm 5 mps 750 mmHg 71%
16:00 +20°C° 0.1 mm 5 mps 750 mmHg 75%
17:00 +20°C° 0.1 mm 5 mps 750 mmHg 79%
18:00 +19°C° 0.1 mm 5 mps 750 mmHg 83%
19:00 +19°C° 0 mm 5 mps 750 mmHg 84%
20:00 +19°C° 0 mm 5 mps 750 mmHg 85%
21:00 +19°C° 0 mm 5 mps 750 mmHg 87%
22:00 +19°C° 0 mm 5 mps 750 mmHg 87%
23:00 +19°C° 0 mm 5 mps 750 mmHg 87%

Tomorrow, 5 July, Sunday

Time Temperature Precipitation Wind Pressure Humidity
00:00 +19°C° 0 mm 4 mps 750 mmHg 87%
01:00 +19°C° 0 mm 4 mps 750 mmHg 87%
02:00 +19°C° 0 mm 4 mps 750 mmHg 87%
03:00 +19°C° 0 mm 4 mps 750 mmHg 87%
04:00 +19°C° 0 mm 4 mps 750 mmHg 85%
05:00 +19°C° 0 mm 5 mps 750 mmHg 84%
06:00 +19°C° 0 mm 5 mps 750 mmHg 82%
07:00 +19°C° 0 mm 5 mps 750 mmHg 78%
08:00 +20°C° 0 mm 5 mps 750 mmHg 74%
09:00 +20°C° 0 mm 6 mps 750 mmHg 70%
10:00 +21°C° 0 mm 6 mps 750 mmHg 68%
11:00 +22°C° 0 mm 6 mps 750 mmHg 66%
12:00 +23°C° 0 mm 6 mps 750 mmHg 64%
13:00 +22°C° 0 mm 6 mps 749 mmHg 66%
14:00 +22°C° 0 mm 6 mps 749 mmHg 67%
15:00 +22°C° 0 mm 6 mps 749 mmHg 68%
16:00 +22°C° 0.2 mm 6 mps 749 mmHg 73%
17:00 +21°C° 0.2 mm 5 mps 749 mmHg 77%
18:00 +20°C° 0.2 mm 4 mps 748 mmHg 82%
19:00 +19°C° 0.1 mm 4 mps 749 mmHg 82%
20:00 +19°C° 0.1 mm 4 mps 749 mmHg 82%
21:00 +18°C° 0.1 mm 4 mps 749 mmHg 83%
22:00 +17°C° 0 mm 4 mps 749 mmHg 82%
23:00 +14°C° 0 mm 4 mps 749 mmHg 81%

Day after tomorrow, 6 July, Monday

Time Temperature Precipitation Wind Pressure Humidity
00:00 +13°C° 0 mm 4 mps 749 mmHg 81%
01:00 +13°C° 0 mm 4 mps 749 mmHg 80%
02:00 +12°C° 0 mm 4 mps 749 mmHg 80%
03:00 +12°C° 0 mm 3 mps 750 mmHg 79%
04:00 +12°C° 0 mm 4 mps 750 mmHg 76%
05:00 +13°C° 0 mm 4 mps 750 mmHg 72%
06:00 +13°C° 0 mm 4 mps 751 mmHg 68%
07:00 +14°C° 0 mm 4 mps 751 mmHg 65%
08:00 +15°C° 0 mm 4 mps 751 mmHg 61%
09:00 +16°C° 0 mm 5 mps 751 mmHg 58%
10:00 +17°C° 0 mm 5 mps 752 mmHg 56%
11:00 +17°C° 0 mm 5 mps 752 mmHg 54%
12:00 +19°C° 0 mm 5 mps 752 mmHg 53%
13:00 +19°C° 0 mm 5 mps 752 mmHg 51%
14:00 +20°C° 0 mm 5 mps 752 mmHg 50%
15:00 +20°C° 0 mm 6 mps 752 mmHg 48%
16:00 +20°C° 0 mm 5 mps 752 mmHg 51%
17:00 +19°C° 0 mm 5 mps 753 mmHg 54%
18:00 +17°C° 0 mm 5 mps 753 mmHg 58%
19:00 +17°C° 0 mm 4 mps 753 mmHg 63%
20:00 +14°C° 0 mm 3 mps 753 mmHg 68%
21:00 +14°C° 0 mm 2 mps 754 mmHg 73%
22:00 +13°C° 0 mm 2 mps 754 mmHg 75%
23:00 +13°C° 0 mm 2 mps 754 mmHg 78%

7 July, Tuesday

Time Temperature Precipitation Wind Pressure Humidity
00:00 +12°C° 0 mm 2 mps 754 mmHg 80%
01:00 +12°C° 0 mm 2 mps 754 mmHg 82%
02:00 +12°C° 0 mm 1 mps 754 mmHg 83%
03:00 +11°C° 0 mm 1 mps 754 mmHg 85%
04:00 +12°C° 0 mm 1 mps 754 mmHg 83%
05:00 +13°C° 0 mm 1 mps 754 mmHg 81%
06:00 +14°C° 0 mm 1 mps 754 mmHg 78%
07:00 +16°C° 0 mm 1 mps 754 mmHg 71%
08:00 +18°C° 0 mm 1 mps 754 mmHg 64%
09:00 +19°C° 0 mm 2 mps 754 mmHg 57%
10:00 +20°C° 0 mm 2 mps 754 mmHg 53%
11:00 +21°C° 0 mm 2 mps 754 mmHg 49%
12:00 +21°C° 0 mm 3 mps 754 mmHg 46%
13:00 +21°C° 0 mm 3 mps 754 mmHg 46%
14:00 +21°C° 0 mm 4 mps 754 mmHg 45%
15:00 +22°C° 0 mm 4 mps 754 mmHg 45%
16:00 +21°C° 0 mm 4 mps 754 mmHg 48%
17:00 +20°C° 0 mm 4 mps 754 mmHg 51%
18:00 +19°C° 0 mm 4 mps 754 mmHg 54%
19:00 +18°C° 0 mm 3 mps 754 mmHg 59%
20:00 +16°C° 0 mm 3 mps 754 mmHg 65%
21:00 +14°C° 0 mm 3 mps 754 mmHg 70%
22:00 +14°C° 0 mm 2 mps 754 mmHg 73%
23:00 +13°C° 0 mm 2 mps 754 mmHg 76%

8 July, Wednesday

Time Temperature Precipitation Wind Pressure Humidity
00:00 +13°C° 0 mm 2 mps 754 mmHg 79%
01:00 +12°C° 0 mm 1 mps 754 mmHg 80%
02:00 +12°C° 0 mm 1 mps 754 mmHg 81%
03:00 +12°C° 0 mm 1 mps 754 mmHg 81%
04:00 +13°C° 0 mm 1 mps 754 mmHg 78%
05:00 +13°C° 0 mm 1 mps 754 mmHg 75%
06:00 +13°C° 0 mm 0 mps 754 mmHg 72%
07:00 +15°C° 0 mm 0 mps 754 mmHg 65%
08:00 +19°C° 0 mm 1 mps 754 mmHg 58%
09:00 +21°C° 0 mm 1 mps 754 mmHg 51%
10:00 +22°C° 0 mm 1 mps 754 mmHg 48%
11:00 +23°C° 0 mm 1 mps 754 mmHg 44%
12:00 +25°C° 0 mm 1 mps 753 mmHg 41%
13:00 +25°C° 0 mm 1 mps 753 mmHg 42%
14:00 +26°C° 0 mm 1 mps 753 mmHg 42%
15:00 +26°C° 0 mm 1 mps 753 mmHg 42%
16:00 +26°C° 0 mm 1 mps 752 mmHg 46%
17:00 +25°C° 0 mm 2 mps 752 mmHg 50%
18:00 +25°C° 0 mm 2 mps 752 mmHg 54%
19:00 +23°C° 0 mm 2 mps 752 mmHg 59%
20:00 +20°C° 0 mm 2 mps 752 mmHg 64%
21:00 +19°C° 0 mm 2 mps 753 mmHg 69%
22:00 +18°C° 0 mm 2 mps 752 mmHg 71%
23:00 +18°C° 0 mm 1 mps 752 mmHg 73%

9 July, Thursday

Time Temperature Precipitation Wind Pressure Humidity
00:00 +16°C° 0 mm 1 mps 752 mmHg 75%
01:00 +16°C° 0 mm 1 mps 752 mmHg 75%
02:00 +15°C° 0 mm 1 mps 752 mmHg 76%
03:00 +15°C° 0 mm 1 mps 752 mmHg 77%
04:00 +15°C° 0 mm 2 mps 752 mmHg 77%
05:00 +16°C° 0 mm 2 mps 752 mmHg 77%
06:00 +16°C° 0 mm 2 mps 752 mmHg 77%
07:00 +17°C° 0 mm 2 mps 753 mmHg 74%
08:00 +19°C° 0 mm 2 mps 753 mmHg 71%
09:00 +20°C° 0 mm 2 mps 753 mmHg 68%
10:00 +21°C° 0 mm 2 mps 753 mmHg 65%
11:00 +22°C° 0 mm 3 mps 753 mmHg 62%
12:00 +24°C° 0 mm 3 mps 753 mmHg 58%
13:00 +24°C° 0 mm 3 mps 753 mmHg 60%
14:00 +24°C° 0 mm 3 mps 753 mmHg 61%
15:00 +24°C° 0 mm 3 mps 752 mmHg 62%
16:00 +22°C° 0 mm 3 mps 752 mmHg 64%
17:00 +23°C° 0 mm 2 mps 752 mmHg 67%
18:00 +21°C° 0 mm 2 mps 752 mmHg 70%
19:00 +20°C° 0 mm 2 mps 752 mmHg 74%
20:00 +20°C° 0 mm 1 mps 752 mmHg 78%
21:00 +19°C° 0 mm 1 mps 752 mmHg 82%
22:00 +19°C° 0 mm 1 mps 752 mmHg 83%
23:00 +19°C° 0 mm 1 mps 752 mmHg 83%
Show more